EA7RX-13 Weather Reports


time (UTC)temp
F
wind
direction
speed
knots
gust
knots
rain 1hr
in
rain 24hr
in
rain mn
in
humidity
%
barometer
mb
20260504035349 61 0.0 0.0 0.00 0.00 0.00 10 1012.8
20260504034349 62 0.0 0.0 0.00 0.00 0.00 10 1012.7
20260504033349 62 0.0 0.0 0.00 0.00 0.00 10 1012.9
20260504032349 62 0.0 0.0 0.00 0.00 0.00 10 1012.7
20260504031349 62 0.0 0.0 0.00 0.00 0.00 10 1012.9
20260504030349 62 0.0 0.0 0.00 0.00 0.00 10 1012.8
20260504025349 63 0.0 0.0 0.00 0.00 0.00 10 1012.9
20260504024349 63 0.0 0.0 0.00 0.00 0.00 10 1012.8
20260504023349 63 0.0 0.0 0.00 0.00 0.00 10 1012.8
20260504022349 63 0.0 0.0 0.00 0.00 0.00 10 1012.7
20260504021349 63 0.0 0.0 0.00 0.00 0.00 10 1012.8
20260504020349 63 0.0 0.0 0.00 0.00 0.00 10 1012.8
20260504015349 63 0.0 0.0 0.00 0.00 0.00 10 1012.9
20260504014349 63 0.0 0.0 0.00 0.00 0.00 10 1012.9
20260504013349 64 0.0 0.0 0.00 0.00 0.00 10 1013.0
20260504012349 63 0.0 0.0 0.00 0.00 0.00 10 1013.0
20260504011349 63 0.0 0.0 0.00 0.00 0.00 95 1013.1
20260504010349 63 0.0 0.0 0.00 0.00 0.00 10 1013.0
20260504005349 63 0.0 0.0 0.00 0.00 0.00 97 1013.3
20260504004349 64 0.0 0.0 0.00 0.00 0.00 95 1013.3
20260504003349 64 0.0 0.0 0.00 0.00 0.00 89 1013.2
20260504002349 64 0.0 0.0 0.00 0.00 0.00 96 1013.3
20260504001349 64 0.0 0.0 0.00 0.00 0.00 87 1013.2
20260504000349 65 0.0 0.0 0.00 0.00 0.00 10 1013.4
20260503235349 65 0.0 0.0 0.00 0.00 0.00 10 1013.4
20260503234349 65 0.0 0.0 0.00 0.00 0.00 10 1013.4
20260503233349 65 0.0 0.0 0.00 0.00 0.00 96 1013.3
20260503232349 66 0.0 0.0 0.00 0.00 0.00 83 1013.3
20260503231349 65 0.0 0.0 0.00 0.00 0.00 78 1013.3
20260503230349 66 0.0 0.0 0.00 0.00 0.00 73 1013.2
20260503225349 65 0.0 0.0 0.00 0.00 0.00 73 1013.4
20260503224349 66 0.0 0.0 0.00 0.00 0.00 74 1013.3
20260503223349 66 0.0 0.0 0.00 0.00 0.00 70 1013.3
20260503222349 67 0.0 0.0 0.00 0.00 0.00 69 1013.4
20260503221349 67 0.0 0.0 0.00 0.00 0.00 68 1013.3
20260503220349 67 0.0 0.0 0.00 0.00 0.00 70 1013.3
20260503215349 67 0.0 0.0 0.00 0.00 0.00 67 1013.3
20260503214349 67 0.0 0.0 0.00 0.00 0.00 71 1013.0
20260503213349 67 0.0 0.0 0.00 0.00 0.00 66 1013.0
20260503212349 68 0.0 0.0 0.00 0.00 0.00 64 1012.9
20260503211349 68 0.0 0.0 0.00 0.00 0.00 66 1012.8
20260503210349 68 0.0 0.0 0.00 0.00 0.00 64 1012.7
20260503205349 69 0.0 0.0 0.00 0.00 0.00 64 1012.5
20260503204349 69 0.0 0.0 0.00 0.00 0.00 62 1012.4
20260503203349 69 0.0 0.0 0.00 0.00 0.00 67 1012.2
20260503202349 69 0.0 0.0 0.00 0.00 0.00 64 1012.1
20260503201349 69 0.0 0.0 0.00 0.00 0.00 65 1011.9
20260503200349 68 0.0 0.0 0.00 0.00 0.00 67 1011.7
20260503195349 69 0.0 0.0 0.00 0.00 0.00 66 1011.5
20260503194349 69 0.0 0.0 0.00 0.00 0.00 66 1011.4
20260503193349 69 0.0 0.0 0.00 0.00 0.00 63 1011.3
20260503192349 69 0.0 0.0 0.00 0.00 0.00 69 1011.1
20260503191349 70 0.0 0.0 0.00 0.00 0.00 66 1011.1
20260503190349 70 0.0 0.0 0.00 0.00 0.00 65 1010.9
20260503185349 71 0.0 0.0 0.00 0.00 0.00 62 1010.8
20260503184349 71 0.0 0.0 0.00 0.00 0.00 59 1010.6
20260503183349 71 0.0 0.0 0.00 0.00 0.00 59 1010.5
20260503182349 72 0.0 0.0 0.00 0.00 0.00 60 1010.6
20260503181349 72 0.0 0.0 0.00 0.00 0.00 58 1010.5
20260503180349 73 0.0 0.0 0.00 0.00 0.00 59 1010.3
20260503175349 73 0.0 0.0 0.00 0.00 0.00 58 1010.3
20260503174349 73 0.0 0.0 0.00 0.00 0.00 60 1010.3
20260503173349 74 0.0 0.0 0.00 0.00 0.00 60 1010.2
20260503172349 74 0.0 0.0 0.00 0.00 0.00 58 1010.1
20260503171349 75 0.0 0.0 0.00 0.00 0.00 57 1009.9
20260503170349 76 0.0 0.0 0.00 0.00 0.00 56 1009.8
20260503150349 75 0.0 0.0 0.00 0.00 0.00 66 1010.5
20260503131349 79 0.0 0.0 0.00 0.00 0.00 58 1011.0
20260503130349 75 0.0 0.0 0.00 0.00 0.00 71 1011.5
20260503110349 81 0.0 0.0 0.00 0.00 0.00 61 1012.3
20260503090349 69 0.0 0.0 0.00 0.00 0.00 10 1014.0
20260503081349 66 0.0 0.0 0.00 0.00 0.00 10 1014.4
20260503080349 66 0.0 0.0 0.00 0.00 0.00 10 1014.3
20260503072349 67 0.0 0.0 0.00 0.00 0.00 10 1013.9
20260503071349 65 0.0 0.0 0.00 0.00 0.00 10 1014.0
20260503070349 65 0.0 0.0 0.00 0.00 0.00 10 1013.9
20260503054349 63 0.0 0.0 0.00 0.00 0.00 10 1014.0
20260503053349 63 0.0 0.0 0.00 0.00 0.00 10 1013.9
20260503052349 64 0.0 0.0 0.00 0.00 0.00 10 1013.9
20260503051349 64 0.0 0.0 0.00 0.00 0.00 10 1013.7
20260503050349 64 0.0 0.0 0.00 0.00 0.00 10 1013.5
20260503045349 64 0.0 0.0 0.00 0.00 0.00 10 1013.7
20260503044349 64 0.0 0.0 0.00 0.00 0.00 10 1013.7
20260503043349 64 0.0 0.0 0.00 0.00 0.00 10 1013.8
20260503042349 65 0.0 0.0 0.00 0.00 0.00 10 1013.7
20260503041349 64 0.0 0.0 0.00 0.00 0.00 10 1014.0
20260503040349 64 0.0 0.0 0.00 0.00 0.00 10 1013.9